NSS-10

Last updated on Tue Oct 08 2024 00:02:37 GMT+0000 (Coordinated Universal Time)

1 28526U 05003A 24281.32107052 -.00000238 00000+0 00000+0 0 9990 2 28526 4.8959 77.8446 0002682 112.2521 264.5287 1.00271421 46965
UTC large
Height (km)
Speed (km/s)
/
Latitude / Longitude
Inclination (degrees)
Orbital Period (minutes)
Azimuth
Elevation
Range (km)
Doppler Factor

Next 0 passes for location: London (51.5072 / 0.1276)

Sorry there are no passes over London.